Gelukkig nieuwjaar .......... Bonne année ........... Happy new year ........... Frohes neues Jahr


Lokaal brand risico:
CBI


Regionaal brand risico: Meer informatie


Onweer radar Meer informatie blitzortung!


Regen radar Meer informatie rain snow radar


Bezoek onze andere website:

Template documentation
and downloads

Weerstation Lembeke

Weerstation Wilsele

EUweather


U vindt ons ook hier:

Het Weer Aktueel

UK Metoffice

European Weather Network

WeatherCloud

Weather Underground

Benelux Weer Netwerk

AWEKAS

WeatherlinkIP

Citizen Weather Observer Program (CWOP)

HAMweather, WeatherForYou, PWS Weather



Het weer levert geen direct gevaar op.    Er zijn geen waarschuwingen afgegeven.

Weather Underground Historische gegevens

Dagelijkse Samenvatting februari 19, 2018 Eenheden:  Metrisch    Engels   Beide
« Vorige Dag
Volgende Dag »
Dagelijkse Wekelijkse Maandelijkse Jaarlijkse Aangepaste
  Huidig: Hoog: Laag: Gemiddeld:
Temperatuur: -15.8 °C -17.8 °C -17.6 °C -16.9 °C
Dauwpunt: -16.2 °C -17.8 °C -18.1 °C -17.5 °C
Vochtigheid: 95 % Humidity % 88 % 92 %
Wind snelheid: 0 km/h 0 km/h 0 km/h 9.8 km/h
Windvlaag: 20.8 km/h 0 km/h - -
Wind:Calm - - South
Luchtdruk: 34405.1 hPa 0 hPa 34405.1 hPa -
Neerslag: 12.7 mm      
Historical Graphs
 
 
Tabel voor februari 19, 2018
Tijd Temperatuur Dauwpunt Luchtdruk Wind Wind snelheid Windvlaag Vochtigheid Regenval per uur
-17.8 °C -17.8 °C 0 hPa Calm     Humidity % 0 mm
00:04 -16.4 °C -17.3 °C 34554.1 hPa SSE 20.8 km/h 28.5 km/h 89 % 0 mm
00:09 -16.4 °C -17.3 °C 34554.1 hPa SSW 10.3 km/h 28.5 km/h 89 % 0 mm
00:14 -16.4 °C -17.3 °C 34554.1 hPa South 7.7 km/h 25.9 km/h 89 % 0 mm
00:19 -16.4 °C -17.3 °C 34554.1 hPa South 7.7 km/h 25.9 km/h 89 % 0 mm
00:24 -16.5 °C -17.5 °C 34554.1 hPa SSE 15.6 km/h 25.9 km/h 88 % 0 mm
00:30 -16.5 °C -17.5 °C 34554.1 hPa SSW 10.3 km/h 25.9 km/h 88 % 0 mm
00:35 -16.5 °C -17.5 °C 34554.1 hPa South 5.1 km/h 23.3 km/h 88 % 0 mm
00:40 -16.6 °C -17.4 °C 34554.1 hPa South 7.7 km/h 25.9 km/h 89 % 0 mm
00:45 -16.6 °C -17.4 °C 34554.1 hPa SSE 15.6 km/h 25.9 km/h 89 % 0 mm
00:50 -16.6 °C -17.5 °C 34554.1 hPa SSW 12.9 km/h 25.9 km/h 89 % 0 mm
00:55 -16.6 °C -17.5 °C 34554.1 hPa South 10.3 km/h 23.3 km/h 89 % 0 mm
01:00 -16.7 °C -17.6 °C 34554.1 hPa South 5.1 km/h 23.3 km/h 89 % 0 mm
01:05 -16.7 °C -17.6 °C 34554.1 hPa South 15.6 km/h 23.3 km/h 89 % 0 mm
01:10 -16.7 °C -17.6 °C 34554.1 hPa South 5.1 km/h 20.8 km/h 89 % 0 mm
01:15 -16.8 °C -17.7 °C 34554.1 hPa SE 10.3 km/h 23.3 km/h 89 % 0 mm
01:20 -16.8 °C -17.7 °C 34554.1 hPa SSE 5.1 km/h 23.3 km/h 89 % 0 mm
01:25 -16.8 °C -17.7 °C 34544 hPa SSE 12.9 km/h 23.3 km/h 89 % 0 mm
01:30 -16.8 °C -17.7 °C 34544 hPa SSE 15.6 km/h 20.8 km/h 89 % 0 mm
01:36 -16.8 °C -17.7 °C 34544 hPa SE 7.7 km/h 23.3 km/h 90 % 0 mm
01:41 -16.8 °C -17.7 °C 34544 hPa South 15.6 km/h 28.5 km/h 89 % 0 mm
01:46 -16.8 °C -17.7 °C 34544 hPa SSE 2.6 km/h 31.1 km/h 89 % 0 mm
01:51 -16.9 °C -17.8 °C 34544 hPa South 12.9 km/h 31.1 km/h 89 % 0 mm
01:56 -16.9 °C -17.7 °C 34544 hPa South 5.1 km/h 31.1 km/h 90 % 0 mm
02:01 -16.9 °C -17.7 °C 34544 hPa SSE 12.9 km/h 20.8 km/h 90 % 0 mm
02:06 -16.9 °C -17.7 °C 34544 hPa SE 2.6 km/h 18.2 km/h 90 % 0 mm
02:11 -16.9 °C -17.7 °C 34533.8 hPa South 12.9 km/h 18.2 km/h 90 % 0 mm
02:16 -16.9 °C -17.8 °C 34533.8 hPa SSE 18.2 km/h 18.2 km/h 90 % 0 mm
02:21 -16.9 °C -17.8 °C 34544 hPa Calm   20.8 km/h 90 % 0 mm
02:26 -17 °C -17.8 °C 34533.8 hPa South 2.6 km/h 20.8 km/h 90 % 0 mm
02:31 -17 °C -17.8 °C 34533.8 hPa South 5.1 km/h 20.8 km/h 90 % 0 mm
02:36 -17 °C -17.8 °C 34533.8 hPa SSE 12.9 km/h 20.8 km/h 90 % 0 mm
02:41 -17 °C -17.7 °C 34533.8 hPa SSW 2.6 km/h 28.5 km/h 91 % 0 mm
02:46 -17 °C -17.7 °C 34533.8 hPa South 18.2 km/h 28.5 km/h 91 % 0 mm
02:52 -17.1 °C -17.8 °C 34533.8 hPa South 7.7 km/h 28.5 km/h 91 % 0 mm
02:57 -17.1 °C -17.8 °C 34533.8 hPa South 2.6 km/h 25.9 km/h 91 % 0 mm
03:02 -17.1 °C -17.8 °C 34520.3 hPa SW 5.1 km/h 25.9 km/h 91 % 0 mm
03:07 -17.1 °C -17.8 °C 34520.3 hPa SSW 2.6 km/h 25.9 km/h 91 % 0 mm
03:12 -17.1 °C -17.8 °C 34520.3 hPa SSE 12.9 km/h 23.3 km/h 91 % 0 mm
03:17 -17.1 °C -17.8 °C 34520.3 hPa South 7.7 km/h 20.8 km/h 91 % 0 mm
03:22 -17.1 °C -17.8 °C 34520.3 hPa SW 15.6 km/h 23.3 km/h 91 % 0 mm
03:27 -17.1 °C -17.8 °C 34510.1 hPa Calm   23.3 km/h 91 % 0 mm
03:32 -17.1 °C -17.8 °C 34510.1 hPa SE 18.2 km/h 23.3 km/h 91 % 0 mm
03:37 -17.1 °C -17.8 °C 34510.1 hPa SSE 5.1 km/h 38.8 km/h 91 % 0 mm
03:42 -17.1 °C -17.8 °C 34510.1 hPa South 2.6 km/h 38.8 km/h 91 % 0 mm
03:47 -17.2 °C -17.9 °C 34496.6 hPa SSE 23.3 km/h 38.8 km/h 91 % 0 mm
03:52 -17.2 °C -17.9 °C 34496.6 hPa South 10.3 km/h 33.6 km/h 91 % 0 mm
03:57 -17.2 °C -17.9 °C 34496.6 hPa South 20.8 km/h 33.6 km/h 91 % 0 mm
04:02 -17.2 °C -17.9 °C 34496.6 hPa SSW 23.3 km/h 23.3 km/h 91 % 0 mm
04:07 -17.2 °C -17.9 °C 34496.6 hPa SSW 5.1 km/h 28.5 km/h 91 % 0 mm
04:12 -17.2 °C -17.9 °C 34496.6 hPa South 15.6 km/h 28.5 km/h 91 % 0 mm
04:17 -17.2 °C -17.9 °C 34496.6 hPa SSW 12.9 km/h 28.5 km/h 91 % 0 mm
04:22 -17.3 °C -17.9 °C 34496.6 hPa Calm   28.5 km/h 92 % 0 mm
04:27 -17.3 °C -17.9 °C 34496.6 hPa SSE 10.3 km/h 28.5 km/h 92 % 0 mm
04:32 -17.3 °C -17.9 °C 34496.6 hPa South 18.2 km/h 28.5 km/h 92 % 0 mm
04:37 -17.3 °C -17.9 °C 34496.6 hPa South 18.2 km/h 28.5 km/h 92 % 0 mm
04:42 -17.3 °C -18 °C 34496.6 hPa SSW 12.9 km/h 28.5 km/h 92 % 0 mm
04:47 -17.3 °C -18 °C 34496.6 hPa SSE 12.9 km/h 28.5 km/h 92 % 0 mm
04:52 -17.3 °C -18 °C 34486.4 hPa South 20.8 km/h 28.5 km/h 92 % 0 mm
04:57 -17.3 °C -18 °C 34496.6 hPa South 10.3 km/h 28.5 km/h 92 % 0 mm
05:02 -17.4 °C -18.1 °C 34486.4 hPa SSW 15.6 km/h 28.5 km/h 92 % 0 mm
05:07 -17.4 °C -18.1 °C 34496.6 hPa South 18.2 km/h 28.5 km/h 92 % 0 mm
05:12 -17.4 °C -18.1 °C 34486.4 hPa SSE 10.3 km/h 28.5 km/h 92 % 0 mm
05:17 -17.4 °C -18.1 °C 34486.4 hPa South 12.9 km/h 25.9 km/h 92 % 0 mm
05:22 -17.4 °C -17.9 °C 34486.4 hPa SSE 15.6 km/h 25.9 km/h 93 % 0 mm
05:27 -17.4 °C -17.9 °C 34486.4 hPa South 18.2 km/h 25.9 km/h 93 % 0 mm
05:32 -17.4 °C -17.9 °C 34486.4 hPa SSE 5.1 km/h 25.9 km/h 93 % 0 mm
05:37 -17.4 °C -18 °C 34486.4 hPa SSE 23.3 km/h 23.3 km/h 93 % 0 mm
05:42 -17.4 °C -18 °C 34486.4 hPa South 2.6 km/h 23.3 km/h 93 % 0 mm
05:47 -17.4 °C -18 °C 34476.3 hPa SSW 15.6 km/h 31.1 km/h 93 % 0 mm
05:52 -17.4 °C -18 °C 34486.4 hPa South 10.3 km/h 31.1 km/h 93 % 0 mm
05:57 -17.4 °C -18 °C 34486.4 hPa SSW 5.1 km/h 23.3 km/h 93 % 0 mm
06:02 -17.4 °C -18 °C 34486.4 hPa South 7.7 km/h 23.3 km/h 93 % 0 mm
06:07 -17.4 °C -18 °C 34486.4 hPa SSE 7.7 km/h 23.3 km/h 93 % 0 mm
06:12 -17.4 °C -18 °C 34486.4 hPa SSE 5.1 km/h 23.3 km/h 93 % 0 mm
06:17 -17.4 °C -18 °C 34486.4 hPa South 7.7 km/h 23.3 km/h 93 % 0 mm
06:22 -17.4 °C -18 °C 34486.4 hPa South 7.7 km/h 23.3 km/h 93 % 0 mm
06:27 -17.4 °C -18 °C 34486.4 hPa South 5.1 km/h 23.3 km/h 93 % 0 mm
06:33 -17.5 °C -18.1 °C 34486.4 hPa SE 5.1 km/h 20.8 km/h 93 % 0 mm
06:38 -17.5 °C -18.1 °C 34476.3 hPa South 7.7 km/h 23.3 km/h 93 % 0 mm
06:43 -17.5 °C -18.1 °C 34476.3 hPa South 15.6 km/h 23.3 km/h 93 % 0 mm
06:48 -17.5 °C -18.1 °C 34486.4 hPa SSW 5.1 km/h 28.5 km/h 93 % 0 mm
06:53 -17.5 °C -18.1 °C 34486.4 hPa SSW 10.3 km/h 28.5 km/h 93 % 0 mm
06:58 -17.5 °C -18.1 °C 34486.4 hPa South 2.6 km/h 28.5 km/h 93 % 0 mm
07:03 -17.6 °C -18.1 °C 34486.4 hPa South 10.3 km/h 20.8 km/h 93 % 0 mm
07:08 -17.6 °C -18.1 °C 34486.4 hPa South 7.7 km/h 18.2 km/h 93 % 0 mm
07:13 -17.6 °C -18.1 °C 34486.4 hPa SSE 12.9 km/h 23.3 km/h 93 % 0 mm
07:18 -17.6 °C -18.1 °C 34486.4 hPa SSE 5.1 km/h 23.3 km/h 93 % 0 mm
07:23 -17.6 °C -18.1 °C 34486.4 hPa South 10.3 km/h 23.3 km/h 93 % 0 mm
07:28 -17.6 °C -18.1 °C 34486.4 hPa SSE 5.1 km/h 18.2 km/h 93 % 0 mm
07:33 -17.6 °C -18.1 °C 34486.4 hPa SSE 15.6 km/h 20.8 km/h 93 % 0 mm
07:38 -17.6 °C -18.1 °C 34486.4 hPa South 12.9 km/h 20.8 km/h 93 % 0 mm
07:43 -17.6 °C -18.1 °C 34486.4 hPa SW 12.9 km/h 20.8 km/h 93 % 0 mm
07:48 -17.6 °C -18.1 °C 34476.3 hPa South 7.7 km/h 28.5 km/h 93 % 0 mm
07:53 -17.6 °C -18.1 °C 34476.3 hPa SSW 5.1 km/h 28.5 km/h 93 % 0 mm
07:58 -17.6 °C -18.1 °C 34476.3 hPa SSW 15.6 km/h 28.5 km/h 93 % 0 mm
08:03 -17.6 °C -18.1 °C 34476.3 hPa SSW 12.9 km/h 28.5 km/h 93 % 0 mm
08:08 -17.6 °C -18.1 °C 34476.3 hPa South 2.6 km/h 28.5 km/h 93 % 0 mm
08:14 -17.6 °C -18.1 °C 34476.3 hPa SSW 5.1 km/h 28.5 km/h 93 % 0 mm
08:19 -17.5 °C -18.1 °C 34476.3 hPa South 12.9 km/h 28.5 km/h 93 % 0 mm
08:24 -17.5 °C -18 °C 34476.3 hPa South 2.6 km/h 28.5 km/h 94 % 0 mm
08:29 -17.4 °C -17.9 °C 34476.3 hPa South 10.3 km/h 25.9 km/h 94 % 0 mm
08:34 -17.4 °C -17.9 °C 34476.3 hPa South 12.9 km/h 25.9 km/h 94 % 0 mm
08:39 -17.4 °C -17.9 °C 34476.3 hPa SSW 10.3 km/h 25.9 km/h 94 % 0 mm
08:44 -17.4 °C -17.9 °C 34476.3 hPa South 15.6 km/h 23.3 km/h 94 % 0 mm
08:49 -17.4 °C -17.9 °C 34476.3 hPa SSW 5.1 km/h 25.9 km/h 94 % 0 mm
08:54 -17.4 °C -17.9 °C 34476.3 hPa SSW 10.3 km/h 25.9 km/h 94 % 0 mm
08:59 -17.3 °C -17.8 °C 34476.3 hPa SSW 10.3 km/h 25.9 km/h 94 % 0 mm
09:04 -17.3 °C -17.8 °C 34476.3 hPa South 5.1 km/h 23.3 km/h 94 % 0 mm
09:09 -17.3 °C -17.8 °C 34476.3 hPa SSE 10.3 km/h 23.3 km/h 94 % 0 mm
09:15 -17.3 °C -17.8 °C 34476.3 hPa SSE 15.6 km/h 20.8 km/h 94 % 0 mm
09:20 -17.3 °C -17.8 °C 34476.3 hPa South 7.7 km/h 33.6 km/h 94 % 0 mm
09:25 -17.3 °C -17.8 °C 34476.3 hPa SSE 15.6 km/h 33.6 km/h 94 % 0 mm
09:30 -17.3 °C -17.8 °C 34462.7 hPa South 2.6 km/h 33.6 km/h 94 % 0 mm
09:35 -17.2 °C -17.7 °C 34462.7 hPa South 18.2 km/h 33.6 km/h 94 % 0 mm
09:40 -17.2 °C -17.7 °C 34462.7 hPa South 10.3 km/h 25.9 km/h 94 % 0 mm
09:45 -17.2 °C -17.7 °C 34462.7 hPa South 18.2 km/h 23.3 km/h 94 % 0 mm
09:50 -17.2 °C -17.7 °C 34462.7 hPa SSE 20.8 km/h 25.9 km/h 94 % 0 mm
09:55 -17.2 °C -17.7 °C 34462.7 hPa South 10.3 km/h 31.1 km/h 94 % 0 mm
10:00 -17.2 °C -17.7 °C 34462.7 hPa SSW 15.6 km/h 31.1 km/h 94 % 0 mm
10:05 -17.1 °C -17.6 °C 34462.7 hPa South 12.9 km/h 31.1 km/h 94 % 0 mm
10:10 -17.1 °C -17.6 °C 34462.7 hPa SW 12.9 km/h 31.1 km/h 94 % 0 mm
10:15 -17.1 °C -17.6 °C 34462.7 hPa SSE 15.6 km/h 28.5 km/h 94 % 0 mm
10:20 -17 °C -17.5 °C 34462.7 hPa SSW 10.3 km/h 28.5 km/h 94 % 0 mm
10:25 -17 °C -17.5 °C 34462.7 hPa SSE 10.3 km/h 28.5 km/h 94 % 0 mm
10:31 -16.9 °C -17.4 °C 34462.7 hPa SSE 10.3 km/h 23.3 km/h 94 % 0 mm
10:36 -16.9 °C -17.4 °C 34462.7 hPa SSE 7.7 km/h 23.3 km/h 94 % 0 mm
10:41 -16.9 °C -17.4 °C 34462.7 hPa SSE 5.1 km/h 23.3 km/h 94 % 0 mm
10:46 -16.9 °C -17.4 °C 34462.7 hPa South 2.6 km/h 23.3 km/h 94 % 0 mm
10:51 -16.9 °C -17.4 °C 34452.6 hPa South 12.9 km/h 23.3 km/h 94 % 0 mm
10:56 -16.8 °C -17.3 °C 34452.6 hPa South 5.1 km/h 20.8 km/h 94 % 0 mm
11:01 -16.8 °C -17.3 °C 34452.6 hPa SSW 5.1 km/h 23.3 km/h 94 % 0 mm
11:06 -16.8 °C -17.3 °C 34452.6 hPa South 10.3 km/h 23.3 km/h 94 % 0 mm
11:11 -16.8 °C -17.3 °C 34452.6 hPa South 15.6 km/h 23.3 km/h 94 % 7.62 mm
11:16 -16.8 °C -17.3 °C 34452.6 hPa SSE 5.1 km/h 23.3 km/h 94 % 7.62 mm
11:21 -16.7 °C -17.1 °C 34452.6 hPa South 5.1 km/h 23.3 km/h 95 % 7.62 mm
11:27 -16.6 °C -16.9 °C 34452.6 hPa South 12.9 km/h 20.8 km/h 95 % 7.62 mm
11:32 -16.6 °C -16.9 °C 34452.6 hPa South 5.1 km/h 23.3 km/h 95 % 7.62 mm
11:37 -16.6 °C -17.1 °C 34452.6 hPa South 7.7 km/h 25.9 km/h 94 % 7.62 mm
11:42 -16.6 °C -17.1 °C 34452.6 hPa SE 10.3 km/h 25.9 km/h 94 % 7.62 mm
11:47 -16.6 °C -17.1 °C 34452.6 hPa SSW 10.3 km/h 25.9 km/h 94 % 7.62 mm
11:52 -16.6 °C -17.1 °C 34442.4 hPa South 10.3 km/h 23.3 km/h 94 % 7.62 mm
11:57 -16.5 °C -16.9 °C 34442.4 hPa South 5.1 km/h 25.9 km/h 95 % 7.62 mm
12:02 -16.4 °C -16.9 °C 34442.4 hPa SSW 15.6 km/h 28.5 km/h 94 % 7.62 mm
12:07 -16.3 °C -16.7 °C 34442.4 hPa South 5.1 km/h 33.6 km/h 95 % 7.62 mm
12:12 -16.3 °C -16.8 °C 34442.4 hPa South 5.1 km/h 33.6 km/h 94 % 0 mm
12:17 -16.2 °C -16.7 °C 34442.4 hPa South 12.9 km/h 33.6 km/h 94 % 0 mm
12:22 -16.2 °C -16.6 °C 34442.4 hPa SW 5.1 km/h 33.6 km/h 95 % 0 mm
12:27 -16.1 °C -16.6 °C 34442.4 hPa South 15.6 km/h 23.3 km/h 94 % 0 mm
12:32 -16.1 °C -16.6 °C 34442.4 hPa SSW 5.1 km/h 25.9 km/h 94 % 0 mm
12:37 -16.1 °C -16.6 °C 34442.4 hPa South 7.7 km/h 25.9 km/h 94 % 0 mm
12:42 -16.1 °C -16.6 °C 34442.4 hPa SSE 12.9 km/h 33.6 km/h 94 % 0 mm
12:47 -16.1 °C -16.6 °C 34442.4 hPa South 2.6 km/h 33.6 km/h 94 % 0 mm
12:52 -16.2 °C -16.7 °C 34428.8 hPa SW 10.3 km/h 33.6 km/h 94 % 0 mm
12:57 -16.1 °C -16.6 °C 34428.8 hPa South 15.6 km/h 28.5 km/h 94 % 0 mm
13:02 -16 °C -16.5 °C 34428.8 hPa South 10.3 km/h 20.8 km/h 94 % 0 mm
13:07 -15.9 °C -16.4 °C 34428.8 hPa SSW 7.7 km/h 18.2 km/h 94 % 0 mm
13:12 -15.9 °C -16.4 °C 34428.8 hPa SSW 5.1 km/h 20.8 km/h 94 % 7.62 mm
13:17 -15.9 °C -16.4 °C 34428.8 hPa South 15.6 km/h 23.3 km/h 94 % 7.62 mm
13:22 -15.9 °C -16.4 °C 34428.8 hPa SW 12.9 km/h 23.3 km/h 94 % 7.62 mm
13:27 -15.9 °C -16.4 °C 34418.7 hPa SSW 15.6 km/h 23.3 km/h 94 % 7.62 mm
13:32 -15.9 °C -16.4 °C 34418.7 hPa SSW 2.6 km/h 23.3 km/h 94 % 7.62 mm
13:37 -15.9 °C -16.4 °C 34418.7 hPa SSE 12.9 km/h 23.3 km/h 94 % 7.62 mm
13:42 -15.9 °C -16.4 °C 34418.7 hPa SW 12.9 km/h 25.9 km/h 94 % 7.62 mm
13:47 -15.9 °C -16.4 °C 34418.7 hPa South 10.3 km/h 25.9 km/h 94 % 7.62 mm
13:52 -15.9 °C -16.4 °C 34418.7 hPa SSW 5.1 km/h 25.9 km/h 94 % 7.62 mm
13:57 -16 °C -16.4 °C 34418.7 hPa South 10.3 km/h 23.3 km/h 95 % 7.62 mm
14:02 -15.9 °C -16.3 °C 34418.7 hPa SSE 7.7 km/h 28.5 km/h 95 % 7.62 mm
14:07 -15.9 °C -16.3 °C 34418.7 hPa SE 10.3 km/h 28.5 km/h 95 % 7.62 mm
14:12 -15.9 °C -16.3 °C 34405.1 hPa South 12.9 km/h 28.5 km/h 95 % 0 mm
14:17 -15.9 °C -16.3 °C 34405.1 hPa SSW 7.7 km/h 23.3 km/h 95 % 7.62 mm
14:22 -15.9 °C -16.3 °C 34405.1 hPa SSW 2.6 km/h 20.8 km/h 95 % 7.62 mm
14:27 -15.9 °C -16.3 °C 34405.1 hPa South 10.3 km/h 20.8 km/h 95 % 7.62 mm
14:33 -15.9 °C -16.3 °C 34405.1 hPa SSW 5.1 km/h 18.2 km/h 95 % 7.62 mm
14:38 -15.9 °C -16.3 °C 34405.1 hPa South 7.7 km/h 20.8 km/h 95 % 7.62 mm
14:43 -15.8 °C -16.2 °C 34405.1 hPa SE 12.9 km/h 20.8 km/h 95 % 7.62 mm
14:48 -15.9 °C -16.3 °C 34405.1 hPa South 2.6 km/h 23.3 km/h 95 % 7.62 mm
14:53 -15.8 °C -16.2 °C 34405.1 hPa Calm   23.3 km/h 95 % 7.62 mm
14:58 -15.8 °C -16.2 °C 34405.1 hPa South 10.3 km/h 23.3 km/h 95 % 7.62 mm
15:03 -15.8 °C -16.2 °C 34405.1 hPa Calm   20.8 km/h 95 % 7.62 mm
WEERSTATION ZONNEBEKE
Gegevens verzameld door Weather Underground - 3.5 mb

Original script by  Jim McMurry - jmcmurry@mwt.net Aangepast voor de template door  Wim van der Kuil - Leuven-Template.eu

Apparatuur in gebruik:

Weerstation
Davis Vantage Pro 2 Plus

Weerprogramma
Meteohub

Weercomputer
RaspberryPI

Webleverancier
My provider

Davis Vantage Pro 2 Plus

Meteohub

RaspberryPI

My provider